| time (UTC) | temp C | wind direction | speed KPH | gust KPH | rain 1hr cm | rain 24hr cm | rain mn cm | humidity % | barometer mb |
| 20260506103522 | 15 | 13 | 1.6 | 16.1 | 0.00 | 0.00 | 0.00 | 77 | 1011.7 |
| 20260506103037 | 15 | 339 | 1.6 | 16.1 | 0.00 | 0.00 | 0.00 | 77 | 1011.5 |
| 20260506102524 | 15 | 30 | 3.2 | 14.5 | 0.00 | 0.00 | 0.00 | 77 | 1011.4 |
| 20260506102022 | 15 | 49 | 4.8 | 14.5 | 0.00 | 0.00 | 0.00 | 77 | 1011.4 |
| 20260506101537 | 15 | 5 | 3.2 | 11.3 | 0.00 | 0.00 | 0.00 | 77 | 1011.5 |
| 20260506101021 | 15 | 24 | 1.6 | 6.4 | 0.00 | 0.00 | 0.00 | 77 | 1011.4 |
| 20260506100518 | 15 | 0 | 1.6 | 6.4 | 0.00 | 0.00 | 0.00 | 77 | 1011.4 |
| 20260506100036 | 15 | 34 | 1.6 | 6.4 | 0.00 | 0.00 | 0.00 | 77 | 1011.4 |
| 20260506095518 | 15 | 316 | 1.6 | 9.7 | 0.00 | 0.00 | 0.00 | 77 | 1011.2 |
| 20260506095022 | 15 | 336 | 1.6 | 9.7 | 0.00 | 0.00 | 0.00 | 77 | 1011.1 |
| 20260506094559 | 16 | 360 | 1.6 | 9.7 | 0.00 | 0.00 | 0.00 | 77 | 1011.2 |
| 20260506094019 | 16 | 0 | 0.0 | 6.4 | 0.00 | 0.00 | 0.00 | 77 | 1011.1 |
| 20260506093518 | 16 | 346 | 1.6 | 8.0 | 0.00 | 0.00 | 0.00 | 77 | 1010.9 |
| 20260506093038 | 16 | 15 | 1.6 | 8.0 | 0.00 | 0.00 | 0.00 | 77 | 1010.7 |
| 20260506092522 | 16 | 0 | 1.6 | 8.0 | 0.00 | 0.00 | 0.00 | 77 | 1010.7 |
| 20260506092019 | 16 | 0 | 1.6 | 9.7 | 0.00 | 0.00 | 0.00 | 77 | 1010.7 |
| 20260506091538 | 16 | 323 | 1.6 | 9.7 | 0.00 | 0.00 | 0.00 | 77 | 1010.7 |
| 20260506091021 | 16 | 322 | 1.6 | 6.4 | 0.00 | 0.00 | 0.00 | 77 | 1010.6 |
| 20260506090521 | 16 | 15 | 1.6 | 8.0 | 0.00 | 0.00 | 0.00 | 77 | 1010.8 |
| 20260506090037 | 16 | 344 | 0.0 | 12.9 | 0.00 | 0.00 | 0.00 | 77 | 1010.8 |
| 20260506085521 | 16 | 352 | 3.2 | 12.9 | 0.00 | 0.00 | 0.00 | 76 | 1010.9 |
| 20260506085020 | 16 | 46 | 3.2 | 9.7 | 0.00 | 0.00 | 0.00 | 76 | 1010.8 |
| 20260506084537 | 16 | 43 | 1.6 | 4.8 | 0.00 | 0.00 | 0.00 | 76 | 1010.8 |
| 20260506084021 | 16 | 25 | 1.6 | 9.7 | 0.00 | 0.00 | 0.00 | 77 | 1010.8 |
| 20260506083521 | 16 | 22 | 1.6 | 9.7 | 0.00 | 0.00 | 0.00 | 76 | 1010.7 |
| 20260506083037 | 16 | 5 | 3.2 | 12.9 | 0.00 | 0.00 | 0.00 | 76 | 1010.6 |
| 20260506082518 | 16 | 5 | 3.2 | 12.9 | 0.00 | 0.00 | 0.00 | 76 | 1010.6 |
| 20260506082022 | 16 | 5 | 1.6 | 8.0 | 0.00 | 0.00 | 0.00 | 76 | 1010.5 |
| 20260506081537 | 16 | 5 | 1.6 | 8.0 | 0.00 | 0.00 | 0.00 | 76 | 1010.6 |
| 20260506081020 | 16 | 49 | 3.2 | 8.0 | 0.00 | 0.00 | 0.00 | 76 | 1010.5 |
| 20260506080522 | 16 | 11 | 1.6 | 8.0 | 0.00 | 0.00 | 0.00 | 76 | 1010.6 |
| 20260506073524 | 17 | 344 | 1.6 | 8.0 | 0.00 | 0.00 | 0.00 | 76 | 1010.4 |
| 20260506073042 | 17 | 360 | 1.6 | 11.3 | 0.00 | 0.00 | 0.00 | 76 | 1010.3 |
| 20260506072521 | 17 | 0 | 0.0 | 11.3 | 0.00 | 0.00 | 0.00 | 75 | 1010.4 |
| 20260506072021 | 17 | 39 | 4.8 | 12.9 | 0.00 | 0.00 | 0.00 | 75 | 1010.2 |
| 20260506071537 | 17 | 38 | 4.8 | 12.9 | 0.00 | 0.00 | 0.00 | 75 | 1010.2 |
| 20260506071018 | 17 | 38 | 4.8 | 9.7 | 0.00 | 0.00 | 0.00 | 75 | 1010.3 |
| 20260506070521 | 17 | 15 | 3.2 | 9.7 | 0.00 | 0.00 | 0.00 | 75 | 1010.2 |
| 20260506062022 | 17 | 349 | 1.6 | 8.0 | 0.00 | 0.00 | 0.00 | 74 | 1010.1 |
| 20260506061538 | 17 | 5 | 1.6 | 6.4 | 0.00 | 0.00 | 0.00 | 73 | 1009.8 |
| 20260506061022 | 17 | 340 | 0.0 | 4.8 | 0.00 | 0.00 | 0.00 | 74 | 1010.0 |
| 20260506060520 | 17 | 352 | 1.6 | 6.4 | 0.00 | 0.00 | 0.00 | 73 | 1009.9 |
| 20260506051021 | 18 | 298 | 1.6 | 9.7 | 0.00 | 0.00 | 0.00 | 71 | 1010.1 |
| 20260506050526 | 18 | 5 | 1.6 | 9.7 | 0.00 | 0.00 | 0.00 | 71 | 1010.0 |
| 20260506045022 | 19 | 22 | 1.6 | 9.7 | 0.00 | 0.00 | 0.00 | 70 | 1009.9 |
| 20260506044545 | 19 | 11 | 1.6 | 11.3 | 0.00 | 0.00 | 0.00 | 70 | 1009.9 |
| 20260506044021 | 19 | 352 | 1.6 | 14.5 | 0.00 | 0.00 | 0.00 | 70 | 1009.6 |
| 20260506043520 | 19 | 5 | 3.2 | 16.1 | 0.00 | 0.00 | 0.00 | 70 | 1009.9 |
| 20260506043037 | 19 | 40 | 4.8 | 16.1 | 0.00 | 0.00 | 0.00 | 69 | 1009.8 |
| 20260506042521 | 20 | 19 | 3.2 | 12.9 | 0.00 | 0.00 | 0.00 | 69 | 1009.8 |
| 20260506042023 | 20 | 0 | 3.2 | 19.3 | 0.00 | 0.00 | 0.00 | 69 | 1009.9 |
| 20260506041536 | 20 | 11 | 4.8 | 19.3 | 0.00 | 0.00 | 0.00 | 69 | 1009.8 |
| 20260506041018 | 20 | 360 | 3.2 | 17.7 | 0.00 | 0.00 | 0.00 | 69 | 1009.8 |
| 20260506040522 | 20 | 0 | 1.6 | 9.7 | 0.00 | 0.00 | 0.00 | 69 | 1009.8 |
| 20260506040056 | 20 | 0 | 1.6 | 12.9 | 0.00 | 0.00 | 0.00 | 69 | 1010.1 |
| 20260506035522 | 20 | 5 | 4.8 | 12.9 | 0.00 | 0.00 | 0.00 | 68 | 1009.8 |
| 20260506035022 | 20 | 5 | 3.2 | 12.9 | 0.00 | 0.00 | 0.00 | 68 | 1009.7 |
| 20260506034558 | 20 | 5 | 3.2 | 12.9 | 0.00 | 0.00 | 0.00 | 68 | 1009.8 |
| 20260506034022 | 21 | 304 | 3.2 | 11.3 | 0.00 | 0.00 | 0.00 | 68 | 1009.7 |
| 20260506033522 | 21 | 350 | 3.2 | 12.9 | 0.00 | 0.00 | 0.00 | 68 | 1009.6 |
| 20260506033039 | 21 | 34 | 1.6 | 12.9 | 0.00 | 0.00 | 0.00 | 68 | 1009.3 |
| 20260506032522 | 21 | 5 | 3.2 | 8.0 | 0.00 | 0.00 | 0.00 | 68 | 1009.3 |
| 20260506032022 | 21 | 304 | 1.6 | 6.4 | 0.00 | 0.00 | 0.00 | 68 | 1009.1 |
| 20260506031553 | 21 | 0 | 1.6 | 6.4 | 0.00 | 0.00 | 0.00 | 68 | 1008.9 |
| 20260506031025 | 21 | 0 | 0.0 | 14.5 | 0.00 | 0.00 | 0.00 | 68 | 1008.7 |
| 20260506030522 | 21 | 0 | 0.0 | 14.5 | 0.00 | 0.00 | 0.00 | 67 | 1008.6 |
| 20260506030038 | 21 | 22 | 3.2 | 9.7 | 0.00 | 0.00 | 0.00 | 67 | 1008.6 |
| 20260506025520 | 21 | 0 | 1.6 | 8.0 | 0.00 | 0.00 | 0.00 | 67 | 1008.3 |
| 20260506025021 | 21 | 329 | 0.0 | 3.2 | 0.00 | 0.00 | 0.00 | 66 | 1008.1 |
| 20260506024537 | 21 | 0 | 0.0 | 4.8 | 0.00 | 0.00 | 0.00 | 66 | 1008.0 |
| 20260506024020 | 21 | 0 | 0.0 | 6.4 | 0.00 | 0.00 | 0.00 | 66 | 1008.1 |
| 20260506023523 | 21 | 5 | 1.6 | 6.4 | 0.00 | 0.00 | 0.00 | 66 | 1008.1 |
| 20260506023040 | 22 | 314 | 0.0 | 6.4 | 0.00 | 0.00 | 0.00 | 65 | 1007.9 |
| 20260506022521 | 22 | 323 | 0.0 | 8.0 | 0.00 | 0.00 | 0.00 | 64 | 1007.8 |
| 20260506022020 | 22 | 346 | 1.6 | 8.0 | 0.00 | 0.00 | 0.00 | 64 | 1007.5 |
| 20260506021538 | 22 | 323 | 0.0 | 8.0 | 0.00 | 0.00 | 0.00 | 64 | 1007.4 |
| 20260506021022 | 22 | 311 | 1.6 | 16.1 | 0.00 | 0.00 | 0.00 | 64 | 1007.5 |
| 20260506020521 | 22 | 0 | 3.2 | 16.1 | 0.00 | 0.00 | 0.00 | 63 | 1007.4 |
| 20260506020039 | 23 | 321 | 1.6 | 4.8 | 0.00 | 0.00 | 0.00 | 64 | 1007.4 |
| 20260506015522 | 23 | 0 | 0.0 | 9.7 | 0.00 | 0.00 | 0.00 | 63 | 1007.1 |
| 20260506015019 | 23 | 0 | 0.0 | 9.7 | 0.00 | 0.00 | 0.00 | 63 | 1007.0 |
| 20260506014535 | 23 | 332 | 1.6 | 8.0 | 0.00 | 0.00 | 0.00 | 62 | 1006.9 |
| 20260506014021 | 23 | 0 | 0.0 | 8.0 | 0.00 | 0.00 | 0.00 | 61 | 1006.9 |
| 20260506013521 | 23 | 5 | 1.6 | 8.0 | 0.00 | 0.00 | 0.00 | 62 | 1006.6 |
| 20260506013037 | 24 | 279 | 1.6 | 11.3 | 0.00 | 0.00 | 0.00 | 61 | 1006.5 |
| 20260506012521 | 24 | 5 | 3.2 | 11.3 | 0.00 | 0.00 | 0.00 | 61 | 1006.0 |
| 20260506012022 | 25 | 15 | 3.2 | 19.3 | 0.00 | 0.00 | 0.00 | 61 | 1005.9 |
| 20260506011538 | 25 | 0 | 6.4 | 19.3 | 0.00 | 0.00 | 0.00 | 60 | 1005.8 |
| 20260506011023 | 25 | 5 | 1.6 | 16.1 | 0.00 | 0.00 | 0.00 | 60 | 1005.7 |
| 20260506010522 | 25 | 19 | 4.8 | 17.7 | 0.00 | 0.00 | 0.00 | 59 | 1005.6 |
| 20260506010043 | 26 | 344 | 6.4 | 17.7 | 0.00 | 0.00 | 0.00 | 59 | 1005.6 |
| 20260506005522 | 26 | 278 | 8.0 | 17.7 | 0.00 | 0.00 | 0.00 | 58 | 1005.6 |
| 20260506005022 | 26 | 206 | 4.8 | 16.1 | 0.00 | 0.00 | 0.00 | 58 | 1005.5 |
| 20260506004538 | 27 | 299 | 4.8 | 20.9 | 0.00 | 0.00 | 0.00 | 57 | 1005.3 |
| 20260506004025 | 27 | 304 | 8.0 | 20.9 | 0.00 | 0.00 | 0.00 | 56 | 1005.2 |
| 20260506003519 | 28 | 350 | 6.4 | 19.3 | 0.00 | 0.00 | 0.00 | 55 | 1005.0 |
| 20260506003038 | 28 | 40 | 4.8 | 19.3 | 0.00 | 0.00 | 0.00 | 54 | 1005.0 |
| 20260506002521 | 28 | 325 | 6.4 | 19.3 | 0.00 | 0.00 | 0.00 | 52 | 1004.9 |
| 20260506002020 | 29 | 11 | 4.8 | 20.9 | 0.00 | 0.00 | 0.00 | 50 | 1004.9 |
| 20260506001537 | 30 | 360 | 6.4 | 20.9 | 0.00 | 0.00 | 0.00 | 47 | 1004.8 |
| 20260506001022 | 31 | 21 | 4.8 | 16.1 | 0.00 | 0.00 | 0.00 | 44 | 1004.8 |
| 20260506000521 | 33 | 321 | 3.2 | 16.1 | 0.00 | 0.00 | 0.00 | 40 | 1004.9 |
| 20260506000037 | 33 | 255 | 0.0 | 3.2 | 0.00 | 0.00 | 0.00 | 40 | 1004.7 |
| 20260505235521 | 33 | 0 | 0.0 | 4.8 | 0.00 | 0.00 | 0.00 | 39 | 1004.7 |
| 20260505235020 | 33 | 0 | 0.0 | 6.4 | 0.00 | 0.00 | 0.00 | 39 | 1004.6 |
| 20260505234542 | 33 | 262 | 0.0 | 6.4 | 0.00 | 0.00 | 0.00 | 40 | 1004.5 |
| 20260505234019 | 33 | 251 | 0.0 | 6.4 | 0.00 | 0.00 | 0.00 | 39 | 1004.5 |
| 20260505233519 | 33 | 264 | 0.0 | 6.4 | 0.00 | 0.00 | 0.00 | 39 | 1004.3 |
| 20260505233041 | 33 | 0 | 0.0 | 9.7 | 0.00 | 0.00 | 0.00 | 39 | 1004.3 |
| 20260505232522 | 33 | 192 | 1.6 | 9.7 | 0.00 | 0.00 | 0.00 | 39 | 1004.3 |
| 20260505232022 | 33 | 132 | 0.0 | 8.0 | 0.00 | 0.00 | 0.00 | 38 | 1004.3 |
| 20260505231546 | 33 | 166 | 3.2 | 9.7 | 0.00 | 0.00 | 0.00 | 38 | 1004.2 |
| 20260505231021 | 33 | 5 | 1.6 | 9.7 | 0.00 | 0.00 | 0.00 | 38 | 1004.3 |
| 20260505230522 | 33 | 0 | 0.0 | 9.7 | 0.00 | 0.00 | 0.00 | 39 | 1004.3 |
| 20260505230037 | 33 | 240 | 0.0 | 6.4 | 0.00 | 0.00 | 0.00 | 39 | 1004.2 |
| 20260505225527 | 33 | 0 | 1.6 | 9.7 | 0.00 | 0.00 | 0.00 | 38 | 1004.3 |
| 20260505225022 | 33 | 184 | 3.2 | 11.3 | 0.00 | 0.00 | 0.00 | 40 | 1004.2 |
| 20260505224537 | 33 | 178 | 3.2 | 11.3 | 0.00 | 0.00 | 0.00 | 39 | 1004.2 |
| 20260505224021 | 33 | 244 | 3.2 | 9.7 | 0.00 | 0.00 | 0.00 | 39 | 1004.3 |
| 20260505223525 | 33 | 246 | 3.2 | 8.0 | 0.00 | 0.00 | 0.00 | 39 | 1004.2 |
| 20260505223044 | 33 | 171 | 1.6 | 8.0 | 0.00 | 0.00 | 0.00 | 39 | 1004.3 |
| 20260505222521 | 33 | 195 | 1.6 | 8.0 | 0.00 | 0.00 | 0.00 | 39 | 1004.0 |
| 20260505222019 | 33 | 232 | 1.6 | 11.3 | 0.00 | 0.00 | 0.00 | 39 | 1004.1 |
| 20260505221537 | 33 | 284 | 1.6 | 11.3 | 0.00 | 0.00 | 0.00 | 39 | 1004.2 |
| 20260505221022 | 33 | 198 | 4.8 | 11.3 | 0.00 | 0.00 | 0.00 | 39 | 1004.1 |
| 20260505220522 | 33 | 169 | 1.6 | 14.5 | 0.00 | 0.00 | 0.00 | 38 | 1004.1 |
| 20260505220041 | 34 | 215 | 3.2 | 14.5 | 0.00 | 0.00 | 0.00 | 38 | 1004.0 |
| 20260505215522 | 33 | 184 | 3.2 | 11.3 | 0.00 | 0.00 | 0.00 | 38 | 1004.1 |
| 20260505215022 | 33 | 163 | 3.2 | 12.9 | 0.00 | 0.00 | 0.00 | 39 | 1004.0 |
| 20260505214548 | 33 | 136 | 3.2 | 12.9 | 0.00 | 0.00 | 0.00 | 39 | 1004.1 |
| 20260505214024 | 33 | 182 | 3.2 | 11.3 | 0.00 | 0.00 | 0.00 | 40 | 1004.3 |
| 20260505213521 | 33 | 210 | 3.2 | 9.7 | 0.00 | 0.00 | 0.00 | 39 | 1004.2 |
| 20260505213038 | 33 | 198 | 3.2 | 9.7 | 0.00 | 0.00 | 0.00 | 40 | 1004.2 |
| 20260505212521 | 33 | 133 | 3.2 | 12.9 | 0.00 | 0.00 | 0.00 | 40 | 1004.2 |
| 20260505212019 | 33 | 175 | 3.2 | 12.9 | 0.00 | 0.00 | 0.00 | 42 | 1004.4 |
| 20260505211538 | 33 | 102 | 1.6 | 12.9 | 0.00 | 0.00 | 0.00 | 44 | 1004.4 |
| 20260505211020 | 33 | 235 | 3.2 | 14.5 | 0.00 | 0.00 | 0.00 | 44 | 1004.4 |
| 20260505210521 | 33 | 197 | 4.8 | 14.5 | 0.00 | 0.00 | 0.00 | 45 | 1004.4 |
| 20260505210037 | 33 | 187 | 4.8 | 12.9 | 0.00 | 0.00 | 0.00 | 43 | 1004.5 |
| 20260505205521 | 33 | 177 | 6.4 | 17.7 | 0.00 | 0.00 | 0.00 | 44 | 1004.6 |
| 20260505205021 | 33 | 246 | 6.4 | 17.7 | 0.00 | 0.00 | 0.00 | 45 | 1004.7 |
| 20260505204537 | 33 | 194 | 4.8 | 16.1 | 0.00 | 0.00 | 0.00 | 45 | 1004.8 |
| 20260505204021 | 33 | 144 | 6.4 | 16.1 | 0.00 | 0.00 | 0.00 | 44 | 1004.8 |
| 20260505203522 | 33 | 186 | 4.8 | 14.5 | 0.00 | 0.00 | 0.00 | 43 | 1004.9 |
| 20260505203039 | 33 | 202 | 4.8 | 17.7 | 0.00 | 0.00 | 0.00 | 44 | 1004.9 |
| 20260505202519 | 33 | 230 | 3.2 | 17.7 | 0.00 | 0.00 | 0.00 | 43 | 1004.9 |
| 20260505202021 | 33 | 159 | 3.2 | 12.9 | 0.00 | 0.00 | 0.00 | 44 | 1005.0 |
| 20260505201539 | 33 | 0 | 4.8 | 14.5 | 0.00 | 0.00 | 0.00 | 43 | 1005.1 |
| 20260505201022 | 33 | 303 | 4.8 | 16.1 | 0.00 | 0.00 | 0.00 | 46 | 1005.1 |
| 20260505200519 | 32 | 128 | 6.4 | 16.1 | 0.00 | 0.00 | 0.00 | 45 | 1005.2 |
| 20260505200043 | 32 | 209 | 3.2 | 16.1 | 0.00 | 0.00 | 0.00 | 47 | 1005.2 |
| 20260505195525 | 32 | 184 | 6.4 | 19.3 | 0.00 | 0.00 | 0.00 | 46 | 1005.2 |
| 20260505195021 | 32 | 207 | 9.7 | 19.3 | 0.00 | 0.00 | 0.00 | 47 | 1005.3 |
| 20260505194538 | 32 | 213 | 3.2 | 14.5 | 0.00 | 0.00 | 0.00 | 46 | 1005.3 |
| 20260505194022 | 32 | 164 | 4.8 | 14.5 | 0.00 | 0.00 | 0.00 | 47 | 1005.3 |
| 20260505193521 | 32 | 282 | 4.8 | 16.1 | 0.00 | 0.00 | 0.00 | 47 | 1005.4 |
| 20260505193037 | 32 | 151 | 6.4 | 20.9 | 0.00 | 0.00 | 0.00 | 47 | 1005.5 |
| 20260505192524 | 32 | 192 | 6.4 | 20.9 | 0.00 | 0.00 | 0.00 | 46 | 1005.5 |
| 20260505192020 | 32 | 216 | 3.2 | 16.1 | 0.00 | 0.00 | 0.00 | 46 | 1005.6 |
| 20260505191540 | 32 | 132 | 4.8 | 16.1 | 0.00 | 0.00 | 0.00 | 46 | 1005.7 |
| 20260505191019 | 32 | 292 | 4.8 | 12.9 | 0.00 | 0.00 | 0.00 | 46 | 1005.6 |
| 20260505190518 | 32 | 267 | 4.8 | 14.5 | 0.00 | 0.00 | 0.00 | 46 | 1005.7 |
| 20260505190043 | 31 | 203 | 3.2 | 14.5 | 0.00 | 0.00 | 0.00 | 49 | 1005.8 |
| 20260505185524 | 31 | 266 | 6.4 | 14.5 | 0.00 | 0.00 | 0.00 | 49 | 1005.9 |
| 20260505185022 | 31 | 286 | 4.8 | 16.1 | 0.00 | 0.00 | 0.00 | 49 | 1005.8 |
| 20260505184538 | 31 | 143 | 3.2 | 17.7 | 0.00 | 0.00 | 0.00 | 51 | 1006.0 |
| 20260505184022 | 31 | 205 | 4.8 | 17.7 | 0.00 | 0.00 | 0.00 | 51 | 1005.8 |
| 20260505183521 | 31 | 205 | 4.8 | 17.7 | 0.00 | 0.00 | 0.00 | 52 | 1005.9 |
| 20260505183040 | 31 | 174 | 4.8 | 17.7 | 0.00 | 0.00 | 0.00 | 52 | 1005.9 |
| 20260505182521 | 31 | 230 | 3.2 | 12.9 | 0.00 | 0.00 | 0.00 | 53 | 1006.0 |
| 20260505182022 | 30 | 181 | 6.4 | 14.5 | 0.00 | 0.00 | 0.00 | 56 | 1006.1 |
| 20260505181540 | 30 | 211 | 4.8 | 14.5 | 0.00 | 0.00 | 0.00 | 55 | 1006.1 |
| 20260505181019 | 30 | 197 | 6.4 | 16.1 | 0.00 | 0.00 | 0.00 | 56 | 1006.2 |
| 20260505180518 | 30 | 252 | 6.4 | 16.1 | 0.00 | 0.00 | 0.00 | 58 | 1006.2 |
| 20260505180041 | 30 | 208 | 6.4 | 19.3 | 0.00 | 0.00 | 0.00 | 58 | 1006.2 |
| 20260505175522 | 29 | 206 | 3.2 | 19.3 | 0.00 | 0.00 | 0.00 | 59 | 1006.2 |
| 20260505175022 | 29 | 225 | 8.0 | 19.3 | 0.00 | 0.00 | 0.00 | 59 | 1006.1 |
| 20260505174543 | 29 | 214 | 4.8 | 17.7 | 0.00 | 0.00 | 0.00 | 60 | 1006.1 |
| 20260505174024 | 28 | 143 | 4.8 | 17.7 | 0.00 | 0.00 | 0.00 | 61 | 1006.4 |
| 20260505173521 | 28 | 191 | 9.7 | 17.7 | 0.00 | 0.00 | 0.00 | 60 | 1006.5 |
| 20260505173038 | 28 | 202 | 4.8 | 20.9 | 0.00 | 0.00 | 0.00 | 63 | 1006.5 |
| 20260505172521 | 28 | 199 | 8.0 | 20.9 | 0.00 | 0.00 | 0.00 | 63 | 1006.5 |
| 20260505172021 | 27 | 187 | 4.8 | 14.5 | 0.00 | 0.00 | 0.00 | 63 | 1006.5 |
| 20260505171539 | 27 | 200 | 4.8 | 12.9 | 0.00 | 0.00 | 0.00 | 65 | 1006.6 |
| 20260505171020 | 27 | 176 | 3.2 | 20.9 | 0.00 | 0.00 | 0.00 | 65 | 1006.6 |
| 20260505170521 | 27 | 182 | 6.4 | 20.9 | 0.00 | 0.00 | 0.00 | 64 | 1006.5 |
| 20260505170037 | 27 | 223 | 4.8 | 19.3 | 0.00 | 0.00 | 0.00 | 65 | 1006.4 |
| 20260505165521 | 27 | 263 | 8.0 | 19.3 | 0.00 | 0.00 | 0.00 | 65 | 1006.4 |
| 20260505165018 | 27 | 148 | 6.4 | 14.5 | 0.00 | 0.00 | 0.00 | 65 | 1006.4 |
| 20260505164537 | 27 | 218 | 4.8 | 20.9 | 0.00 | 0.00 | 0.00 | 66 | 1006.5 |
| 20260505164025 | 27 | 0 | 6.4 | 22.5 | 0.00 | 0.00 | 0.00 | 65 | 1006.4 |
| 20260505163524 | 27 | 164 | 8.0 | 22.5 | 0.00 | 0.00 | 0.00 | 66 | 1006.5 |
| 20260505163049 | 27 | 185 | 4.8 | 17.7 | 0.00 | 0.00 | 0.00 | 67 | 1006.5 |
| 20260505162522 | 27 | 252 | 6.4 | 14.5 | 0.00 | 0.00 | 0.00 | 67 | 1006.5 |
| 20260505162022 | 27 | 134 | 4.8 | 16.1 | 0.00 | 0.00 | 0.00 | 67 | 1006.4 |
| 20260505161538 | 26 | 115 | 4.8 | 17.7 | 0.00 | 0.00 | 0.00 | 68 | 1006.4 |
| 20260505161024 | 26 | 162 | 6.4 | 19.3 | 0.00 | 0.00 | 0.00 | 68 | 1006.4 |
| 20260505160522 | 26 | 210 | 4.8 | 19.3 | 0.00 | 0.00 | 0.00 | 68 | 1006.4 |
| 20260505153043 | 25 | 227 | 6.4 | 17.7 | 0.00 | 0.00 | 0.00 | 73 | 1006.5 |
| 20260505152523 | 25 | 140 | 4.8 | 19.3 | 0.00 | 0.00 | 0.00 | 73 | 1006.4 |
| 20260505152022 | 25 | 142 | 8.0 | 19.3 | 0.00 | 0.00 | 0.00 | 73 | 1006.3 |
| 20260505151533 | 25 | 120 | 6.4 | 19.3 | 0.00 | 0.00 | 0.00 | 74 | 1006.4 |
| 20260505151025 | 25 | 186 | 9.7 | 19.3 | 0.00 | 0.00 | 0.00 | 73 | 1006.5 |
| 20260505150522 | 25 | 180 | 8.0 | 19.3 | 0.00 | 0.00 | 0.00 | 74 | 1006.6 |
| 20260505140521 | 22 | 182 | 6.4 | 17.7 | 0.00 | 0.00 | 0.00 | 79 | 1006.2 |
| 20260505125021 | 21 | 205 | 4.8 | 14.5 | 0.00 | 0.00 | 0.00 | 80 | 1005.9 |
| 20260505124540 | 21 | 159 | 3.2 | 14.5 | 0.00 | 0.00 | 0.00 | 80 | 1005.9 |
| 20260505124022 | 21 | 209 | 4.8 | 12.9 | 0.00 | 0.00 | 0.00 | 80 | 1005.9 |
| 20260505123525 | 20 | 199 | 3.2 | 12.9 | 0.00 | 0.00 | 0.00 | 80 | 1006.0 |
| 20260505123045 | 20 | 0 | 1.6 | 12.9 | 0.00 | 0.00 | 0.00 | 80 | 1005.9 |
| 20260505122520 | 20 | 360 | 3.2 | 14.5 | 0.00 | 0.00 | 0.00 | 80 | 1005.7 |
| 20260505122031 | 20 | 202 | 4.8 | 14.5 | 0.00 | 0.00 | 0.00 | 80 | 1005.7 |
| 20260505121540 | 20 | 225 | 4.8 | 14.5 | 0.00 | 0.00 | 0.00 | 80 | 1005.6 |
| 20260505121019 | 20 | 195 | 1.6 | 8.0 | 0.00 | 0.00 | 0.00 | 80 | 1005.4 |
| 20260505120521 | 20 | 171 | 0.0 | 9.7 | 0.00 | 0.00 | 0.00 | 80 | 1005.5 |
| 20260505120037 | 20 | 212 | 3.2 | 12.9 | 0.00 | 0.00 | 0.00 | 80 | 1005.4 |
| 20260505115521 | 20 | 234 | 1.6 | 12.9 | 0.00 | 0.00 | 0.00 | 80 | 1005.4 |
| 20260505115022 | 20 | 142 | 4.8 | 11.3 | 0.00 | 0.00 | 0.00 | 80 | 1005.5 |
| 20260505114537 | 20 | 176 | 1.6 | 12.9 | 0.00 | 0.00 | 0.00 | 80 | 1005.4 |
| 20260505114020 | 20 | 163 | 4.8 | 14.5 | 0.00 | 0.00 | 0.00 | 80 | 1005.4 |
| 20260505113521 | 20 | 224 | 4.8 | 14.5 | 0.00 | 0.00 | 0.00 | 80 | 1005.3 |
| 20260505113041 | 20 | 215 | 3.2 | 8.0 | 0.00 | 0.00 | 0.00 | 80 | 1005.1 |
| 20260505112521 | 20 | 217 | 1.6 | 11.3 | 0.00 | 0.00 | 0.00 | 80 | 1005.0 |
| 20260505112019 | 20 | 192 | 3.2 | 14.5 | 0.00 | 0.00 | 0.00 | 80 | 1005.2 |
| 20260505111540 | 20 | 207 | 3.2 | 14.5 | 0.00 | 0.00 | 0.00 | 80 | 1005.2 |
| 20260505111022 | 20 | 185 | 4.8 | 14.5 | 0.00 | 0.00 | 0.00 | 80 | 1005.3 |
| 20260505110522 | 20 | 171 | 4.8 | 12.9 | 0.00 | 0.00 | 0.00 | 80 | 1005.2 |